VLG310 LEPA-LEMI

Flight info

Callsign VLG310
Flight time 0h 40m
Altitude 23000
Route BAVER M603 ALT
Aircraft A20N/M-SDE2E3FGHIRWXY/LB1

Departure

Time 2026-04-22 10:22
Airport Palma de Mallorca Airport (LEPA)

Arrival

Time 2026-04-22 11:02
Airport Region of Murcia International Airport (LEMI)
Time Latitude Longitude Altitude Speed Heading
2026-04-22 09:59 39.54751 2.73629 51 ft 0 kts 58°
2026-04-22 10:10 39.54747 2.73620 51 ft 2 kts 58°
2026-04-22 10:10 39.54740 2.73603 50 ft 2 kts 77°
2026-04-22 10:11 39.54738 2.73583 50 ft 2 kts 93°
2026-04-22 10:11 39.54741 2.73564 50 ft 2 kts 111°
2026-04-22 10:11 39.54748 2.73547 50 ft 2 kts 129°
2026-04-22 10:11 39.54759 2.73534 50 ft 1 kts 147°
2026-04-22 10:12 39.54765 2.73530 50 ft 1 kts 152°
2026-04-22 10:12 39.54766 2.73528 50 ft 0 kts 151°
2026-04-22 10:14 39.54736 2.73551 50 ft 14 kts 148°
2026-04-22 10:15 39.54665 2.73610 50 ft 11 kts 144°
2026-04-22 10:15 39.54666 2.73695 50 ft 10 kts 65°
2026-04-22 10:15 39.54704 2.73781 50 ft 12 kts 59°
2026-04-22 10:15 39.54751 2.73872 51 ft 12 kts 54°
2026-04-22 10:16 39.54800 2.73967 51 ft 13 kts 57°
2026-04-22 10:16 39.54878 2.73972 51 ft 13 kts 329°
2026-04-22 10:16 39.54914 2.73963 52 ft 2 kts 14°
2026-04-22 10:16 39.54950 2.73991 52 ft 11 kts 32°
2026-04-22 10:17 39.55048 2.73950 52 ft 21 kts 316°
2026-04-22 10:17 39.55177 2.73846 53 ft 22 kts 332°
2026-04-22 10:17 39.55303 2.73747 53 ft 21 kts 328°
2026-04-22 10:17 39.55426 2.73650 53 ft 20 kts 329°
2026-04-22 10:18 39.55546 2.73556 54 ft 20 kts 329°
2026-04-22 10:18 39.55651 2.73510 54 ft 16 kts 37°
2026-04-22 10:18 39.55713 2.73629 55 ft 16 kts 59°
2026-04-22 10:18 39.55772 2.73752 55 ft 16 kts 59°
2026-04-22 10:19 39.55832 2.73879 55 ft 16 kts 58°
2026-04-22 10:19 39.55892 2.74004 56 ft 17 kts 58°
2026-04-22 10:19 39.55953 2.74132 56 ft 17 kts 59°
2026-04-22 10:19 39.56028 2.74245 56 ft 17 kts 34°
2026-04-22 10:20 39.56126 2.74328 57 ft 17 kts 33°
2026-04-22 10:20 39.56226 2.74337 57 ft 16 kts 297°
2026-04-22 10:20 39.56216 2.74246 57 ft 0 kts 241°
2026-04-22 10:21 39.56188 2.74183 57 ft 33 kts 239°
2026-04-22 10:21 39.55935 2.73650 56 ft 106 kts 238°
2026-04-22 10:21 39.55437 2.72598 54 ft 165 kts 239°
2026-04-22 10:21 39.54805 2.71259 479 ft 179 kts 239°
2026-04-22 10:22 39.54194 2.69912 1238 ft 176 kts 240°
2026-04-22 10:22 39.53596 2.68534 1881 ft 182 kts 239°
2026-04-22 10:22 39.52877 2.67133 2335 ft 196 kts 235°
2026-04-22 10:22 39.52059 2.65624 2770 ft 215 kts 234°
2026-04-22 10:23 39.51172 2.63985 3306 ft 229 kts 235°
2026-04-22 10:23 39.50290 2.62329 4215 ft 227 kts 236°
2026-04-22 10:23 39.49411 2.60648 5020 ft 230 kts 237°
2026-04-22 10:23 39.48525 2.58932 5805 ft 234 kts 238°
2026-04-22 10:24 39.47631 2.57186 6609 ft 237 kts 238°
2026-04-22 10:24 39.46727 2.55418 7422 ft 240 kts 239°
2026-04-22 10:24 39.45814 2.53630 8222 ft 243 kts 239°
2026-04-22 10:24 39.44887 2.51802 9037 ft 250 kts 240°
2026-04-22 10:25 39.43922 2.49877 9547 ft 266 kts 240°
2026-04-22 10:25 39.42889 2.47811 10037 ft 284 kts 240°
2026-04-22 10:25 39.41793 2.45619 10547 ft 300 kts 240°
2026-04-22 10:25 39.40632 2.43303 10976 ft 318 kts 240°
2026-04-22 10:26 39.39396 2.40841 11405 ft 335 kts 240°
2026-04-22 10:26 39.38117 2.38296 12088 ft 343 kts 240°
2026-04-22 10:26 39.36821 2.35722 12915 ft 345 kts 239°
2026-04-22 10:26 39.35516 2.33132 13719 ft 348 kts 239°
2026-04-22 10:27 39.34199 2.30517 14490 ft 351 kts 239°
2026-04-22 10:27 39.32867 2.27877 15261 ft 353 kts 239°
2026-04-22 10:27 39.31531 2.25227 16002 ft 356 kts 239°
2026-04-22 10:27 39.30184 2.22561 16735 ft 358 kts 239°
2026-04-22 10:28 39.28822 2.19863 17310 ft 365 kts 239°
2026-04-22 10:28 39.27424 2.17097 17775 ft 374 kts 239°
2026-04-22 10:28 39.26004 2.14292 18410 ft 377 kts 238°
2026-04-22 10:28 39.24575 2.11470 19069 ft 379 kts 238°
2026-04-22 10:29 39.23135 2.08630 19705 ft 382 kts 238°
2026-04-22 10:29 39.21682 2.05766 20322 ft 384 kts 238°
2026-04-22 10:29 39.20220 2.02888 20913 ft 387 kts 238°
2026-04-22 10:29 39.18746 1.99989 21467 ft 391 kts 238°
2026-04-22 10:30 39.17267 1.97044 22010 ft 394 kts 240°
2026-04-22 10:30 39.15974 1.93952 22558 ft 396 kts 246°
2026-04-22 10:30 39.14922 1.90658 22924 ft 397 kts 252°
2026-04-22 10:30 39.14124 1.87292 22985 ft 397 kts 255°
2026-04-22 10:31 39.13396 1.83894 22987 ft 395 kts 256°
2026-04-22 10:31 39.12680 1.80488 22988 ft 395 kts 256°
2026-04-22 10:31 39.11965 1.77096 22988 ft 395 kts 256°
2026-04-22 10:31 39.11243 1.73691 22988 ft 395 kts 255°
2026-04-22 10:32 39.10520 1.70301 22987 ft 395 kts 255°
2026-04-22 10:32 39.09792 1.66902 22987 ft 395 kts 255°
2026-04-22 10:32 39.09064 1.63514 22981 ft 395 kts 255°
2026-04-22 10:32 39.08332 1.60113 22987 ft 395 kts 255°
2026-04-22 10:33 39.07601 1.56723 22992 ft 396 kts 255°
2026-04-22 10:33 39.06869 1.53332 22986 ft 396 kts 255°
2026-04-22 10:33 39.06132 1.49927 22985 ft 396 kts 255°
2026-04-22 10:33 39.05395 1.46522 22980 ft 395 kts 255°
2026-04-22 10:34 39.04662 1.43146 22988 ft 395 kts 255°
2026-04-22 10:34 39.03927 1.39767 22992 ft 394 kts 255°
2026-04-22 10:34 39.03191 1.36382 22980 ft 395 kts 255°
2026-04-22 10:34 39.02451 1.32989 22987 ft 395 kts 255°
2026-04-22 10:35 39.01712 1.29609 22991 ft 395 kts 255°
2026-04-22 10:35 39.00971 1.26222 22990 ft 394 kts 255°
2026-04-22 10:35 39.00231 1.22841 22994 ft 394 kts 255°
2026-04-22 10:35 38.99491 1.19467 22987 ft 394 kts 255°
2026-04-22 10:36 38.98750 1.16091 22978 ft 394 kts 255°
2026-04-22 10:36 38.98006 1.12711 22976 ft 394 kts 255°
2026-04-22 10:36 38.97261 1.09333 22971 ft 395 kts 255°
2026-04-22 10:36 38.96514 1.05943 22973 ft 395 kts 255°
2026-04-22 10:37 38.95767 1.02562 22978 ft 396 kts 255°
2026-04-22 10:37 38.94266 0.95787 22971 ft 395 kts 255°
2026-04-22 10:37 38.93517 0.92410 22968 ft 395 kts 255°
2026-04-22 10:38 38.92767 0.89037 22968 ft 394 kts 255°
2026-04-22 10:38 38.92018 0.85669 22967 ft 394 kts 255°
2026-04-22 10:38 38.91268 0.82298 22968 ft 395 kts 255°
2026-04-22 10:38 38.90516 0.78927 22968 ft 394 kts 255°
2026-04-22 10:39 38.89764 0.75561 22968 ft 395 kts 255°
2026-04-22 10:39 38.89008 0.72191 22967 ft 394 kts 255°
2026-04-22 10:39 38.88230 0.68831 22968 ft 394 kts 253°
2026-04-22 10:39 38.87319 0.65520 22968 ft 395 kts 250°
2026-04-22 10:40 38.86311 0.62260 22969 ft 395 kts 250°
2026-04-22 10:40 38.85294 0.58997 22967 ft 395 kts 249°
2026-04-22 10:40 38.84277 0.55747 22965 ft 395 kts 249°
2026-04-22 10:40 38.83246 0.52488 22966 ft 396 kts 248°
2026-04-22 10:41 38.82081 0.49286 22968 ft 396 kts 245°
2026-04-22 10:41 38.80772 0.46219 22968 ft 397 kts 241°
2026-04-22 10:41 38.79302 0.43233 22968 ft 398 kts 238°
2026-04-22 10:41 38.77782 0.40285 22965 ft 397 kts 238°
2026-04-22 10:42 38.76259 0.37342 22967 ft 398 kts 238°
2026-04-22 10:42 38.74729 0.34391 22966 ft 398 kts 238°
2026-04-22 10:42 38.73210 0.31460 22964 ft 398 kts 238°
2026-04-22 10:42 38.71681 0.28512 22966 ft 399 kts 238°
2026-04-22 10:43 38.70154 0.25568 22968 ft 398 kts 238°
2026-04-22 10:43 38.68621 0.22615 22965 ft 398 kts 238°
2026-04-22 10:43 38.67098 0.19684 22963 ft 398 kts 238°
2026-04-22 10:43 38.65568 0.16741 22943 ft 398 kts 238°
2026-04-22 10:44 38.64044 0.13812 22621 ft 396 kts 238°
2026-04-22 10:44 38.62529 0.10903 22256 ft 394 kts 238°
2026-04-22 10:44 38.61020 0.08005 21807 ft 391 kts 238°
2026-04-22 10:44 38.59526 0.05143 21327 ft 388 kts 238°
2026-04-22 10:45 38.58043 0.02301 20833 ft 385 kts 238°
2026-04-22 10:45 38.56568 -0.00523 20309 ft 381 kts 237°
2026-04-22 10:45 38.55112 -0.03308 19817 ft 378 kts 237°
2026-04-22 10:45 38.53665 -0.06073 19308 ft 375 kts 237°
2026-04-22 10:46 38.52228 -0.08817 18811 ft 372 kts 237°
2026-04-22 10:46 38.50800 -0.11542 18296 ft 369 kts 237°
2026-04-22 10:46 38.49385 -0.14237 17820 ft 366 kts 237°
2026-04-22 10:46 38.47977 -0.16916 17301 ft 364 kts 237°
2026-04-22 10:47 38.46581 -0.19572 16807 ft 361 kts 237°
2026-04-22 10:47 38.45195 -0.22204 16310 ft 358 kts 237°
2026-04-22 10:47 38.43807 -0.24841 15822 ft 356 kts 237°
2026-04-22 10:47 38.42444 -0.27427 15316 ft 354 kts 237°
2026-04-22 10:48 38.41084 -0.30006 14831 ft 352 kts 237°
2026-04-22 10:48 38.39728 -0.32577 14328 ft 349 kts 237°
2026-04-22 10:48 38.38386 -0.35118 13871 ft 346 kts 237°
2026-04-22 10:48 38.37052 -0.37643 13367 ft 344 kts 237°
2026-04-22 10:49 38.35724 -0.40157 12891 ft 342 kts 237°
2026-04-22 10:49 38.34399 -0.42665 12381 ft 341 kts 237°
2026-04-22 10:49 38.33090 -0.45141 11903 ft 339 kts 237°
2026-04-22 10:49 38.31784 -0.47607 11424 ft 337 kts 236°
2026-04-22 10:50 38.30481 -0.50064 10942 ft 336 kts 236°
2026-04-22 10:50 38.29192 -0.52491 10641 ft 327 kts 236°
2026-04-22 10:50 38.27948 -0.54832 10488 ft 314 kts 236°
2026-04-22 10:50 38.26753 -0.57078 10332 ft 302 kts 236°
2026-04-22 10:51 38.25586 -0.59221 10186 ft 290 kts 235°
2026-04-22 10:51 38.24453 -0.61270 10051 ft 279 kts 235°
2026-04-22 10:51 38.23354 -0.63258 9811 ft 274 kts 235°
2026-04-22 10:51 38.22203 -0.65173 9426 ft 274 kts 224°
2026-04-22 10:52 38.20649 -0.66533 9063 ft 273 kts 203°
2026-04-22 10:52 38.18851 -0.67284 8714 ft 272 kts 196°
2026-04-22 10:52 38.17034 -0.67927 8373 ft 271 kts 196°
2026-04-22 10:52 38.15249 -0.68641 8022 ft 269 kts 204°
2026-04-22 10:53 38.13668 -0.69865 7674 ft 267 kts 219°
2026-04-22 10:53 38.12324 -0.71469 7351 ft 266 kts 224°
2026-04-22 10:53 38.11040 -0.73127 7077 ft 261 kts 225°
2026-04-22 10:53 38.09794 -0.74741 6925 ft 251 kts 224°
2026-04-22 10:54 38.08597 -0.76281 6839 ft 241 kts 224°
2026-04-22 10:54 38.07422 -0.77777 6541 ft 240 kts 224°
2026-04-22 10:54 38.06243 -0.79269 6236 ft 240 kts 224°
2026-04-22 10:54 38.05065 -0.80757 5930 ft 239 kts 224°
2026-04-22 10:55 38.03894 -0.82235 5642 ft 238 kts 224°
2026-04-22 10:55 38.02726 -0.83705 5350 ft 237 kts 223°
2026-04-22 10:55 38.01525 -0.85184 5082 ft 242 kts 223°
2026-04-22 10:55 38.00330 -0.86668 4821 ft 243 kts 224°
2026-04-22 10:56 37.99137 -0.88174 4572 ft 243 kts 224°
2026-04-22 10:56 37.97952 -0.89690 4330 ft 242 kts 224°
2026-04-22 10:56 37.96785 -0.91193 4176 ft 234 kts 224°
2026-04-22 10:56 37.95685 -0.92616 4158 ft 219 kts 224°
2026-04-22 10:57 37.94655 -0.93949 4120 ft 206 kts 224°
2026-04-22 10:57 37.93687 -0.95202 4015 ft 194 kts 224°
2026-04-22 10:57 37.92758 -0.96402 3746 ft 190 kts 224°
2026-04-22 10:57 37.91844 -0.97582 3478 ft 186 kts 225°
2026-04-22 10:58 37.90953 -0.98732 3222 ft 182 kts 225°
2026-04-22 10:58 37.90081 -0.99858 2978 ft 177 kts 225°
2026-04-22 10:58 37.89237 -1.00948 2769 ft 170 kts 225°
2026-04-22 10:58 37.88427 -1.01994 2543 ft 163 kts 225°
2026-04-22 10:59 37.87666 -1.02979 2336 ft 149 kts 224°
2026-04-22 10:59 37.86974 -1.03872 2137 ft 139 kts 224°
2026-04-22 10:59 37.86299 -1.04743 1974 ft 139 kts 224°
2026-04-22 10:59 37.85625 -1.05612 1812 ft 139 kts 224°
2026-04-22 11:00 37.84953 -1.06479 1642 ft 139 kts 225°
2026-04-22 11:00 37.84281 -1.07347 1466 ft 138 kts 225°
2026-04-22 11:00 37.83608 -1.08212 1287 ft 139 kts 224°
2026-04-22 11:00 37.82934 -1.09078 1114 ft 138 kts 225°
2026-04-22 11:01 37.82264 -1.09942 916 ft 138 kts 225°
2026-04-22 11:01 37.81602 -1.10810 745 ft 138 kts 224°
2026-04-22 11:01 37.80938 -1.11665 635 ft 132 kts 224°
2026-04-22 11:01 37.80377 -1.12387 626 ft 92 kts 227°
2026-04-22 11:02 37.80049 -1.12803 630 ft 42 kts 226°
2026-04-22 11:02 37.79918 -1.13070 634 ft 24 kts 254°
2026-04-22 11:02 37.79898 -1.13171 636 ft 10 kts 259°
2026-04-22 11:02 37.79926 -1.13237 638 ft 9 kts 348°
2026-04-22 11:03 37.79983 -1.13203 638 ft 11 kts 42°
2026-04-22 11:03 37.80040 -1.13131 636 ft 12 kts 46°
2026-04-22 11:03 37.80113 -1.13082 637 ft 12 kts 340°
2026-04-22 11:03 37.80176 -1.13146 640 ft 10 kts 330°
2026-04-22 11:04 37.80240 -1.13142 642 ft 9 kts 356°
2026-04-22 11:04 37.80284 -1.13181 644 ft 5 kts 316°
2026-04-22 11:04 37.80293 -1.13191 644 ft 0 kts 316°